Time,TemperatureF,DewpointF,PressureIn,WindDirection,WindDirectionDegrees,WindSpeedMPH,WindSpeedGustMPH,Humidity,HourlyPrecipIn,Conditions,Clouds,dailyrainin,SolarRadiationWatts/m^2,SoftwareType,DateUTC
2013-04-14 00:02:00,46.0,19.0,-100.00,South,189,0.0,9.0,34,0.00,,,0.00,0.000000,,2013-04-14 07:02:00,
2013-04-14 00:12:00,46.0,19.0,-100.00,South,189,0.0,9.0,34,0.00,,,0.00,0.000000,,2013-04-14 07:12:00,
2013-04-14 00:22:00,46.0,19.0,-100.00,South,189,0.0,9.0,34,0.00,,,0.00,0.000000,,2013-04-14 07:22:00,
2013-04-14 00:32:00,46.0,19.0,-100.00,South,189,0.0,9.0,34,0.00,,,0.00,0.000000,,2013-04-14 07:32:00,
2013-04-14 01:02:00,52.0,22.0,-100.00,West,279,1.0,15.0,30,0.00,,,0.00,0.000000,,2013-04-14 08:02:00,
2013-04-14 01:12:00,52.0,22.0,-100.00,West,279,1.0,15.0,30,0.00,,,0.00,0.000000,,2013-04-14 08:12:00,
2013-04-14 01:22:00,52.0,22.0,-100.00,West,279,1.0,15.0,30,0.00,,,0.00,0.000000,,2013-04-14 08:22:00,
2013-04-14 01:32:00,52.0,22.0,-100.00,West,279,1.0,15.0,30,0.00,,,0.00,0.000000,,2013-04-14 08:32:00,
2013-04-14 02:02:00,48.0,20.0,-100.00,South,175,0.0,7.0,33,0.00,,,0.00,0.000000,,2013-04-14 09:02:00,
2013-04-14 02:12:00,48.0,20.0,-100.00,South,175,0.0,7.0,33,0.00,,,0.00,0.000000,,2013-04-14 09:12:00,
2013-04-14 02:22:00,48.0,20.0,-100.00,South,175,0.0,7.0,33,0.00,,,0.00,0.000000,,2013-04-14 09:22:00,
2013-04-14 02:32:00,48.0,20.0,-100.00,South,175,0.0,7.0,33,0.00,,,0.00,0.000000,,2013-04-14 09:32:00,
2013-04-14 03:03:00,40.0,20.0,-100.00,North,352,0.0,5.0,44,0.00,,,0.00,0.000000,,2013-04-14 10:03:00,
2013-04-14 03:12:00,40.0,20.0,-100.00,North,352,0.0,5.0,44,0.00,,,0.00,0.000000,,2013-04-14 10:12:00,
2013-04-14 03:22:00,40.0,20.0,-100.00,North,352,0.0,5.0,44,0.00,,,0.00,0.000000,,2013-04-14 10:22:00,
2013-04-14 03:32:00,40.0,20.0,-100.00,North,352,0.0,5.0,44,0.00,,,0.00,0.000000,,2013-04-14 10:32:00,
2013-04-14 04:02:00,38.0,21.0,-100.00,NNW,347,0.0,0.0,50,0.00,,,0.00,0.000000,,2013-04-14 11:02:00,
2013-04-14 04:12:00,38.0,21.0,-100.00,NNW,347,0.0,0.0,50,0.00,,,0.00,0.000000,,2013-04-14 11:12:00,
2013-04-14 04:22:00,38.0,21.0,-100.00,NNW,347,0.0,0.0,50,0.00,,,0.00,0.000000,,2013-04-14 11:22:00,
2013-04-14 04:32:00,38.0,21.0,-100.00,NNW,347,0.0,0.0,50,0.00,,,0.00,0.000000,,2013-04-14 11:32:00,
2013-04-14 05:02:00,36.0,22.0,-100.00,NNW,340,0.0,0.0,56,0.00,,,0.00,0.000000,,2013-04-14 12:02:00,
2013-04-14 05:12:00,36.0,22.0,-100.00,NNW,340,0.0,0.0,56,0.00,,,0.00,0.000000,,2013-04-14 12:12:00,
2013-04-14 05:21:00,36.0,22.0,-100.00,NNW,340,0.0,0.0,56,0.00,,,0.00,0.000000,,2013-04-14 12:21:00,
2013-04-14 05:32:00,36.0,22.0,-100.00,NNW,340,0.0,0.0,56,0.00,,,0.00,0.000000,,2013-04-14 12:32:00,
2013-04-14 06:02:00,37.0,21.0,-100.00,NE,34,0.0,0.0,53,0.00,,,0.00,0.000000,,2013-04-14 13:02:00,
2013-04-14 06:12:00,37.0,21.0,-100.00,NE,34,0.0,0.0,53,0.00,,,0.00,0.000000,,2013-04-14 13:12:00,
2013-04-14 06:22:00,37.0,21.0,-100.00,NE,34,0.0,0.0,53,0.00,,,0.00,0.000000,,2013-04-14 13:22:00,
2013-04-14 06:32:00,37.0,21.0,-100.00,NE,34,0.0,0.0,53,0.00,,,0.00,0.000000,,2013-04-14 13:32:00,
2013-04-14 07:02:00,39.0,22.0,-100.00,NNE,20,0.0,4.0,51,0.00,,,0.00,1.000000,,2013-04-14 14:02:00,
2013-04-14 07:12:00,39.0,22.0,-100.00,NNE,20,0.0,4.0,51,0.00,,,0.00,1.000000,,2013-04-14 14:12:00,
2013-04-14 07:22:00,39.0,22.0,-100.00,NNE,20,0.0,4.0,51,0.00,,,0.00,1.000000,,2013-04-14 14:22:00,
2013-04-14 07:32:00,39.0,22.0,-100.00,NNE,20,0.0,4.0,51,0.00,,,0.00,1.000000,,2013-04-14 14:32:00,
2013-04-14 08:02:00,52.0,30.0,-100.00,SSW,206,0.0,3.0,42,0.00,,,0.00,123.000000,,2013-04-14 15:02:00,
2013-04-14 08:12:00,52.0,30.0,-100.00,SSW,206,0.0,3.0,42,0.00,,,0.00,123.000000,,2013-04-14 15:12:00,
2013-04-14 08:22:00,52.0,30.0,-100.00,SSW,206,0.0,3.0,42,0.00,,,0.00,123.000000,,2013-04-14 15:22:00,
2013-04-14 08:33:00,52.0,30.0,-100.00,SSW,206,0.0,3.0,42,0.00,,,0.00,123.000000,,2013-04-14 15:33:00,
2013-04-14 09:04:00,60.0,26.0,-100.00,WSW,255,1.0,7.0,27,0.00,,,-99.99,437.000000,,2013-04-14 16:04:00,
2013-04-14 10:02:00,64.0,27.0,-100.00,West,280,3.0,9.0,25,0.00,,,0.00,710.000000,,2013-04-14 17:02:00,
2013-04-14 11:02:00,66.0,26.0,-100.00,West,270,3.0,11.0,22,-99.99,,,0.00,944.000000,,2013-04-14 18:02:00,
2013-04-14 12:03:00,68.0,23.0,-100.00,WSW,251,4.0,12.0,18,-99.99,,,0.00,1122.000000,,2013-04-14 19:03:00,
2013-04-14 12:32:00,68.0,23.0,-100.00,WSW,251,4.0,12.0,18,-99.99,,,0.00,1122.000000,,2013-04-14 19:32:00,
2013-04-14 13:02:00,67.0,21.0,-100.00,West,266,3.0,13.0,17,0.00,,,0.00,1227.000000,,2013-04-14 20:02:00,
2013-04-14 13:12:00,67.0,21.0,-100.00,West,266,3.0,13.0,17,0.00,,,0.00,1227.000000,,2013-04-14 20:12:00,
2013-04-14 13:22:00,67.0,21.0,-100.00,West,266,3.0,13.0,17,0.00,,,0.00,1227.000000,,2013-04-14 20:22:00,
2013-04-14 13:32:00,67.0,21.0,-100.00,West,266,3.0,13.0,17,0.00,,,0.00,1227.000000,,2013-04-14 20:32:00,
2013-04-14 14:02:00,71.0,23.0,-100.00,ENE,77,3.0,11.0,16,0.00,,,0.00,1248.000000,,2013-04-14 21:02:00,
2013-04-14 15:02:00,71.0,24.0,-100.00,SSW,211,3.0,13.0,17,-99.99,,,0.00,1193.000000,,2013-04-14 22:02:00,
2013-04-14 15:22:00,71.0,24.0,-100.00,SSW,211,3.0,13.0,17,-99.99,,,0.00,1193.000000,,2013-04-14 22:22:00,
2013-04-14 15:32:00,71.0,24.0,-100.00,SSW,211,3.0,13.0,17,-99.99,,,0.00,1193.000000,,2013-04-14 22:32:00,
2013-04-14 16:02:00,66.0,28.0,-100.00,SSW,213,2.0,14.0,24,-99.99,,,0.00,1060.000000,,2013-04-14 23:02:00,
2013-04-14 16:12:00,66.0,28.0,-100.00,SSW,213,2.0,14.0,24,-99.99,,,0.00,1060.000000,,2013-04-14 23:12:00,
2013-04-14 16:22:00,66.0,28.0,-100.00,SSW,213,2.0,14.0,24,-99.99,,,0.00,1060.000000,,2013-04-14 23:22:00,
2013-04-14 16:32:00,66.0,28.0,-100.00,SSW,213,2.0,14.0,24,-99.99,,,0.00,1060.000000,,2013-04-14 23:32:00,
2013-04-14 17:02:00,66.0,24.0,-100.00,WNW,282,5.0,14.0,20,0.00,,,0.00,861.000000,,2013-04-15 00:02:00,
2013-04-14 17:12:00,66.0,24.0,-100.00,WNW,282,5.0,14.0,20,0.00,,,0.00,861.000000,,2013-04-15 00:12:00,
2013-04-14 17:22:00,66.0,24.0,-100.00,WNW,282,5.0,14.0,20,0.00,,,0.00,861.000000,,2013-04-15 00:22:00,
2013-04-14 17:32:00,66.0,24.0,-100.00,WNW,282,5.0,14.0,20,0.00,,,0.00,861.000000,,2013-04-15 00:32:00,
2013-04-14 18:02:00,61.0,29.0,-100.00,NNW,344,2.0,15.0,30,0.00,,,0.00,608.000000,,2013-04-15 01:02:00,
2013-04-14 18:12:00,61.0,29.0,-100.00,NNW,344,2.0,15.0,30,0.00,,,0.00,608.000000,,2013-04-15 01:12:00,
2013-04-14 18:22:00,61.0,29.0,-100.00,NNW,344,2.0,15.0,30,0.00,,,0.00,608.000000,,2013-04-15 01:22:00,
2013-04-14 18:32:00,61.0,29.0,-100.00,NNW,344,2.0,15.0,30,0.00,,,0.00,608.000000,,2013-04-15 01:32:00,
2013-04-14 19:02:00,54.0,19.0,-100.00,WSW,246,2.0,13.0,25,0.00,,,0.00,120.000000,,2013-04-15 02:02:00,
2013-04-14 19:12:00,54.0,19.0,-100.00,WSW,246,2.0,13.0,25,0.00,,,0.00,120.000000,,2013-04-15 02:12:00,
2013-04-14 19:22:00,54.0,19.0,-100.00,WSW,246,2.0,13.0,25,0.00,,,0.00,120.000000,,2013-04-15 02:22:00,
2013-04-14 19:32:00,54.0,19.0,-100.00,WSW,246,2.0,13.0,25,0.00,,,0.00,120.000000,,2013-04-15 02:32:00,
2013-04-14 20:02:00,48.0,16.0,-100.00,WNW,297,3.0,11.0,28,0.00,,,0.00,11.000000,,2013-04-15 03:02:00,
2013-04-14 20:12:00,48.0,16.0,-100.00,WNW,297,3.0,11.0,28,0.00,,,0.00,11.000000,,2013-04-15 03:12:00,
2013-04-14 20:22:00,48.0,16.0,-100.00,WNW,297,3.0,11.0,28,0.00,,,0.00,11.000000,,2013-04-15 03:22:00,
2013-04-14 20:32:00,48.0,16.0,-100.00,WNW,297,3.0,11.0,28,0.00,,,0.00,11.000000,,2013-04-15 03:32:00,
2013-04-14 21:03:00,45.0,20.0,-100.00,North,4,4.0,17.0,36,0.00,,,0.00,0.000000,,2013-04-15 04:03:00,
2013-04-14 21:13:00,45.0,20.0,-100.00,North,4,4.0,17.0,36,0.00,,,0.00,0.000000,,2013-04-15 04:13:00,
2013-04-14 21:22:00,45.0,20.0,-100.00,North,4,4.0,17.0,36,0.00,,,0.00,0.000000,,2013-04-15 04:22:00,
2013-04-14 21:32:00,45.0,20.0,-100.00,North,4,4.0,17.0,36,0.00,,,0.00,0.000000,,2013-04-15 04:32:00,
2013-04-14 22:02:00,43.0,25.0,-100.00,NNW,344,1.0,11.0,48,0.00,,,0.00,0.000000,,2013-04-15 05:02:00,
2013-04-14 22:12:00,43.0,25.0,-100.00,NNW,344,1.0,11.0,48,0.00,,,0.00,0.000000,,2013-04-15 05:12:00,
2013-04-14 22:22:00,43.0,25.0,-100.00,NNW,344,1.0,11.0,48,0.00,,,0.00,0.000000,,2013-04-15 05:22:00,
2013-04-14 22:32:00,43.0,25.0,-100.00,NNW,344,1.0,11.0,48,0.00,,,0.00,0.000000,,2013-04-15 05:32:00,
2013-04-14 23:02:00,43.0,25.0,-100.00,West,270,2.0,13.0,49,0.00,,,0.00,0.000000,,2013-04-15 06:02:00,
2013-04-14 23:12:00,43.0,25.0,-100.00,West,270,2.0,13.0,49,0.00,,,0.00,0.000000,,2013-04-15 06:12:00,
2013-04-14 23:22:00,43.0,25.0,-100.00,West,270,2.0,13.0,49,0.00,,,0.00,0.000000,,2013-04-15 06:22:00,
2013-04-14 23:32:00,43.0,25.0,-100.00,West,270,2.0,13.0,49,0.00,,,0.00,0.000000,,2013-04-15 06:32:00,